GW5159 Weather Reports


Display with metric or nautical units.
time (UTC)temp
F
wind
direction
speed
MPH
gust
MPH
rain 1hr
in
rain 24hr
in
rain mn
in
humidity
%
barometer
mb
20260504050721 0 141 0.0 1.0 0.00 0.00 0.00 1008.8
20260504050218 0 148 2.0 2.0 0.00 0.00 0.00 1008.6
20260504045715 0 182 1.0 2.0 0.00 0.00 0.00 1008.9
20260504045215 0 147 2.0 2.0 0.00 0.00 0.00 1008.8
20260504044713 0 177 2.0 2.0 0.00 0.00 0.00 1008.6
20260504044210 0 162 0.0 1.0 0.00 0.00 0.00 1008.9
20260504043707 0 124 0.0 1.0 0.00 0.00 0.00 1008.6
20260504043204 0 160 1.0 3.0 0.00 0.00 0.00 1009.0
20260504042701 0 141 1.0 3.0 0.00 0.00 0.00 1008.6
20260504042158 0 153 1.0 1.0 0.00 0.00 0.00 1008.6
20260504041654 0 160 1.0 2.0 0.00 0.00 0.00 1008.8
20260504041149 0 184 0.0 1.0 0.00 0.00 0.00 1008.8
20260504040647 0 174 0.0 0.0 0.00 0.00 0.00 1008.8
20260504040144 0 103 1.0 1.0 0.00 0.00 0.00 1008.6
20260504035640 0 254 1.0 1.0 0.00 0.00 0.00 1008.8
20260504035137 0 174 0.0 0.0 0.00 0.00 0.00 1008.8
20260504034635 0 181 0.0 0.0 0.00 0.00 0.00 1008.8
20260504034132 0 169 0.0 0.0 0.00 0.00 0.00 1008.8
20260504033629 0 135 0.0 1.0 0.00 0.00 0.00 1009.0
20260504033127 0 181 0.0 1.0 0.00 0.00 0.00 1008.9
20260504032623 0 242 0.0 1.0 0.00 0.00 0.00 1008.9
20260504032120 0 322 1.0 2.0 0.00 0.00 0.00 1009.1
20260504031618 0 244 1.0 1.0 0.00 0.00 0.00 1009.0
20260504031113 0 258 0.0 1.0 0.00 0.00 0.00 1009.1
20260504030611 0 261 2.0 2.0 0.00 0.00 0.00 1009.1
20260504030108 0 287 3.0 3.0 0.00 0.00 0.00 1009.3
20260504025604 0 293 2.0 4.0 0.00 0.00 0.00 1009.1
20260504025101 0 265 2.0 2.0 0.00 0.00 0.00 1009.0
20260504024558 0 277 4.0 6.0 0.00 0.00 0.00 1009.1
20260504024055 0 316 4.0 6.0 0.00 0.00 0.00 1009.4
20260504023551 0 330 3.0 4.0 0.00 0.00 0.00 1009.3
20260504023047 0 316 4.0 6.0 0.00 0.00 0.00 1009.4
20260504022543 0 305 6.0 7.0 0.00 0.00 0.00 1009.4
20260504022040 0 274 4.0 9.0 0.00 0.00 0.00 1009.7
20260504021537 0 288 6.0 9.0 0.00 0.00 0.00 1009.7
20260504021034 0 338 6.0 7.0 0.00 0.00 0.00 1009.7
20260504020531 0 320 9.0 13.0 0.00 0.00 0.00 1009.5
20260504020028 0 281 5.0 11.0 0.00 0.00 0.00 1009.5
20260504015524 0 323 3.0 3.0 0.00 0.00 0.00 1009.5
20260504015020 0 305 3.0 4.0 0.00 0.00 0.00 1009.4
20260504014516 0 254 1.0 2.0 0.00 0.00 0.00 1009.3
20260504014014 0 259 0.0 1.0 0.00 0.00 0.00 1009.3
20260504013512 0 309 2.0 3.0 0.00 0.00 0.00 1009.3
20260504013008 0 320 0.0 2.0 0.00 0.00 0.00 1009.1
20260504012506 0 227 0.0 1.0 0.00 0.00 0.00 1009.1
20260504012004 0 228 0.0 3.0 0.00 0.00 0.00 1009.2
20260504011500 0 357 1.0 2.0 0.00 0.00 0.00 1009.2
20260504010955 0 233 1.0 2.0 0.00 0.00 0.00 1009.3
20260504010452 0 40 0.0 1.0 0.00 0.00 0.00 1009.1
20260504005948 0 47 1.0 2.0 0.00 0.00 0.00 1009.0
20260504005445 0 199 1.0 3.0 0.00 0.00 0.00 1009.0
20260504004942 0 134 0.0 0.0 0.00 0.00 0.00 1008.9
20260504004440 0 112 2.0 2.0 0.00 0.00 0.00 1009.0
20260504003937 0 130 0.0 1.0 0.00 0.00 0.00 1009.0
20260504003433 0 120 1.0 3.0 0.00 0.00 0.00 1008.8
20260504002930 0 128 2.0 2.0 0.00 0.00 0.00 1008.6
20260504002427 0 146 2.0 2.0 0.00 0.00 0.00 1008.6
20260504001924 0 158 0.0 0.0 0.00 0.00 0.00 1008.6
20260504001421 0 158 0.0 2.0 0.00 0.00 0.00 1008.8
20260504000918 0 252 2.0 3.0 0.00 0.00 0.00 1008.9
20260504000416 0 292 8.0 9.0 0.00 0.00 0.00 1009.0
20260503235912 0 306 4.0 11.0 0.00 0.00 0.00 1009.2
20260503235410 0 285 8.0 11.0 0.00 0.00 0.00 1009.4
20260503234908 0 295 11.0 11.0 0.00 0.00 0.00 1009.5
20260503234405 0 292 4.0 11.0 0.00 0.00 0.00 1009.3
20260503233902 0 305 13.0 21.0 0.00 0.00 0.00 1009.4
20260503233359 0 285 12.0 16.0 0.00 0.00 0.00 1009.1
20260503232855 0 349 10.0 16.0 0.00 0.00 0.00 1009.0
20260503232353 0 330 4.0 8.0 0.00 0.00 0.00 1009.0
20260503231850 0 323 5.0 11.0 0.00 0.00 0.00 1008.9
20260503231347 0 310 3.0 8.0 0.00 0.00 0.00 1008.6
20260503230843 0 303 3.0 4.0 0.00 0.00 0.00 1008.4
20260503230340 0 271 4.0 6.0 0.00 0.00 0.00 1008.4
20260503225838 0 290 5.0 6.0 0.00 0.00 0.00 1008.3
20260503225333 0 335 5.0 6.0 0.00 0.00 0.00 1008.2
20260503224830 0 265 3.0 6.0 0.00 0.00 0.00 1008.4
20260503224327 0 303 3.0 4.0 0.00 0.00 0.00 1008.4
20260503223825 0 306 3.0 7.0 0.00 0.00 0.00 1008.3
20260503223323 0 326 5.0 6.0 0.00 0.00 0.00 1008.2
20260503222818 0 298 4.0 6.0 0.00 0.00 0.00 1008.2
20260503222317 0 313 4.0 6.0 0.00 0.00 0.00 1008.4
20260503221814 0 291 4.0 9.0 0.00 0.00 0.00 1008.4
20260503221313 0 283 6.0 8.0 0.00 0.00 0.00 1008.4
20260503220808 0 253 5.0 8.0 0.00 0.00 0.00 1008.6
20260503220306 0 281 4.0 7.0 0.00 0.00 0.00 1008.8
20260503215802 0 310 7.0 9.0 0.00 0.00 0.00 1008.6
20260503215259 0 305 7.0 9.0 0.00 0.00 0.00 1008.6
20260503214757 0 281 8.0 11.0 0.00 0.00 0.00 1008.9
20260503214254 0 286 8.0 13.0 0.00 0.00 0.00 1008.9
20260503213752 0 313 9.0 13.0 0.00 0.00 0.00 1008.5
20260503213249 0 319 7.0 14.0 0.00 0.00 0.00 1008.5
20260503212745 0 293 5.0 7.0 0.00 0.00 0.00 1008.5
20260503212243 0 286 7.0 9.0 0.00 0.00 0.00 1008.6
20260503211741 0 297 9.0 15.0 0.00 0.00 0.00 1008.5
20260503211237 0 276 5.0 9.0 0.00 0.00 0.00 1008.5
20260503210732 0 285 14.0 16.0 0.00 0.00 0.00 1008.6
20260503210230 0 324 7.0 10.0 0.00 0.00 0.00 1008.8
20260503205725 0 260 4.0 10.0 0.00 0.00 0.00 1008.9
20260503205221 0 287 8.0 11.0 0.00 0.00 0.00 1008.8
20260503204718 0 270 6.0 10.0 0.00 0.00 0.00 1008.6
20260503204216 0 288 7.0 11.0 0.00 0.00 0.00 1009.0
20260503203713 0 314 7.0 13.0 0.00 0.00 0.00 1008.8
20260503203211 0 294 9.0 14.0 0.00 0.00 0.00 1008.8
20260503202708 0 311 8.0 13.0 0.00 0.00 0.00 1009.0
20260503202205 0 308 13.0 15.0 0.00 0.00 0.00 1008.8
20260503201703 0 330 12.0 15.0 0.00 0.00 0.00 1008.9
20260503201200 0 299 4.0 15.0 0.00 0.00 0.00 1009.0
20260503200656 0 311 4.0 11.0 0.00 0.00 0.00 1009.1
20260503200153 0 303 9.0 18.0 0.00 0.00 0.00 1008.9
20260503195650 0 278 11.0 14.0 0.00 0.00 0.00 1009.0
20260503195147 0 325 7.0 13.0 0.00 0.00 0.00 1009.1
20260503194644 0 338 11.0 19.0 0.00 0.00 0.00 1009.3
20260503194139 0 301 9.0 14.0 0.00 0.00 0.00 1009.4
20260503193636 0 287 7.0 11.0 0.00 0.00 0.00 1009.4
20260503193132 0 297 15.0 18.0 0.00 0.00 0.00 1009.3
20260503192628 0 268 4.0 7.0 0.00 0.00 0.00 1009.5
20260503192123 0 343 9.0 15.0 0.00 0.00 0.00 1009.4
20260503191621 0 354 4.0 10.0 0.00 0.00 0.00 1009.5
20260503191118 0 283 2.0 11.0 0.00 0.00 0.00 1009.3
20260503190614 0 303 4.0 9.0 0.00 0.00 0.00 1009.5
20260503190111 0 282 8.0 15.0 0.00 0.00 0.00 1009.5
20260503185608 0 334 12.0 19.0 0.00 0.00 0.00 1009.5
20260503185108 0 299 10.0 15.0 0.00 0.00 0.00 1009.6
20260503184603 0 252 7.0 14.0 0.00 0.00 0.00 1009.8
20260503184100 0 299 7.0 15.0 0.00 0.00 0.00 1009.7
20260503183557 0 259 10.0 14.0 0.00 0.00 0.00 1009.7
20260503183054 0 289 9.0 13.0 0.00 0.00 0.00 1009.9
20260503182553 0 318 12.0 15.0 0.00 0.00 0.00 1009.9
20260503182050 0 269 12.0 16.0 0.00 0.00 0.00 1009.9
20260503181547 0 297 7.0 15.0 0.00 0.00 0.00 1009.9
20260503181043 0 235 9.0 13.0 0.00 0.00 0.00 1010.2
20260503180541 0 311 9.0 15.0 0.00 0.00 0.00 1010.0
20260503180038 0 347 14.0 18.0 0.00 0.00 0.00 1010.2
20260503175535 0 341 7.0 16.0 0.00 0.00 0.00 1010.2
20260503175032 0 286 9.0 11.0 0.00 0.00 0.00 1010.2
20260503174530 0 246 6.0 13.0 0.00 0.00 0.00 1010.4
20260503174026 0 267 6.0 15.0 0.00 0.00 0.00 1010.4
20260503173521 0 275 12.0 15.0 0.00 0.00 0.00 1010.4
20260503173017 0 280 11.0 13.0 0.00 0.00 0.00 1010.4
20260503172515 0 282 13.0 16.0 0.00 0.00 0.00 1010.4
20260503172012 0 298 10.0 15.0 0.00 0.00 0.00 1010.6
20260503171508 0 314 4.0 10.0 0.00 0.00 0.00 1010.5
20260503171006 0 317 8.0 15.0 0.00 0.00 0.00 1010.5
20260503170502 0 313 14.0 16.0 0.00 0.00 0.00 1010.7
20260503150854 0 291 11.0 16.0 0.00 0.00 0.00 1011.8
20260503150350 0 259 6.0 13.0 0.00 0.00 0.00 1011.8
20260503140315 0 322 11.0 16.0 0.00 0.00 0.00 1011.8
20260503131244 0 295 9.0 15.0 0.00 0.00 0.00 1012.0
20260503130742 0 299 11.0 13.0 0.00 0.00 0.00 1012.1
20260503130239 0 336 9.0 15.0 0.00 0.00 0.00 1012.0
20260503120205 0 291 4.0 8.0 0.00 0.00 0.00 1011.8
20260503110632 0 303 1.0 1.0 0.00 0.00 0.00 1011.8
20260503110130 0 52 0.0 0.0 0.00 0.00 0.00 1011.8
20260503081445 0 323 4.0 6.0 0.00 0.00 0.00 1011.2
20260503080943 0 333 4.0 6.0 0.00 0.00 0.00 1011.0
20260503080439 0 307 5.0 7.0 0.00 0.00 0.00 1011.1
20260503072915 0 308 6.0 7.0 0.00 0.00 0.00 1011.0
20260503072413 0 319 6.0 9.0 0.00 0.00 0.00 1011.2
20260503071909 0 303 7.0 8.0 0.00 0.00 0.00 1011.2
20260503071407 0 298 4.0 7.0 0.00 0.00 0.00 1011.2
20260503070902 0 307 4.0 6.0 0.00 0.00 0.00 1011.2
20260503070400 0 309 3.0 4.0 0.00 0.00 0.00 1011.3